TimeEDT,TemperatureF,Dew PointF,Humidity,Sea Level PressureIn,VisibilityMPH,Wind Direction,Wind SpeedMPH,Gust SpeedMPH,PrecipitationIn,Events,Conditions,WindDirDegrees,DateUTC
12:51 AM,52.0,50.0,93,30.13,5.0,Calm,Calm,-,N/A,,Partly Cloudy,0,2013-06-15 04:51:00
1:47 AM,51.8,48.2,88,30.12,3.0,Calm,Calm,-,N/A,,Scattered Clouds,0,2013-06-15 05:47:00
1:51 AM,51.1,50.0,96,30.12,3.0,Calm,Calm,-,N/A,,Mostly Cloudy,0,2013-06-15 05:51:00
2:23 AM,51.8,48.2,88,30.11,5.0,Calm,Calm,-,N/A,,Mostly Cloudy,0,2013-06-15 06:23:00
2:37 AM,50.0,48.2,94,30.12,2.5,Calm,Calm,-,N/A,,Mostly Cloudy,0,2013-06-15 06:37:00
2:46 AM,50.0,48.2,94,30.11,1.5,Calm,Calm,-,N/A,,Mostly Cloudy,0,2013-06-15 06:46:00
2:51 AM,50.0,48.0,93,30.12,1.5,Calm,Calm,-,N/A,,Mostly Cloudy,0,2013-06-15 06:51:00
3:05 AM,51.8,48.2,88,30.11,0.8,Calm,Calm,-,N/A,,Mist,0,2013-06-15 07:05:00
3:35 AM,51.8,50.0,94,30.10,2.0,Calm,Calm,-,N/A,,Overcast,0,2013-06-15 07:35:00
3:43 AM,51.8,50.0,94,30.11,6.0,Calm,Calm,-,N/A,,Overcast,0,2013-06-15 07:43:00
3:51 AM,51.1,50.0,96,30.11,5.0,Calm,Calm,-,N/A,,Overcast,0,2013-06-15 07:51:00
4:51 AM,53.1,51.1,93,30.12,4.0,Calm,Calm,-,N/A,,Overcast,0,2013-06-15 08:51:00
5:36 AM,51.8,51.8,100,30.14,1.8,Calm,Calm,-,N/A,,Overcast,0,2013-06-15 09:36:00
5:51 AM,52.0,50.0,93,30.14,2.0,Calm,Calm,-,N/A,,Overcast,0,2013-06-15 09:51:00
6:02 AM,51.8,50.0,94,30.14,4.0,South,3.5,-,N/A,,Overcast,190,2013-06-15 10:02:00
6:51 AM,52.0,50.0,93,30.15,5.0,Calm,Calm,-,N/A,,Overcast,0,2013-06-15 10:51:00
7:51 AM,53.1,51.1,93,30.17,6.0,Calm,Calm,-,N/A,,Overcast,0,2013-06-15 11:51:00
8:14 AM,53.6,51.8,94,30.17,1.8,WNW,3.5,-,N/A,,Overcast,300,2013-06-15 12:14:00
8:44 AM,53.6,51.8,94,30.19,2.5,Calm,Calm,-,N/A,,Overcast,0,2013-06-15 12:44:00
8:51 AM,55.0,53.1,93,30.19,2.0,Calm,Calm,-,N/A,,Overcast,0,2013-06-15 12:51:00
9:01 AM,55.4,53.6,94,30.19,5.0,Calm,Calm,-,N/A,,Overcast,0,2013-06-15 13:01:00
9:19 AM,57.2,53.6,88,30.19,10.0,Calm,Calm,-,N/A,,Scattered Clouds,0,2013-06-15 13:19:00
9:51 AM,63.0,55.9,78,30.19,10.0,Calm,Calm,-,N/A,,Partly Cloudy,0,2013-06-15 13:51:00
10:51 AM,68.0,55.0,63,30.17,10.0,Variable,3.5,-,N/A,,Mostly Cloudy,0,2013-06-15 14:51:00
11:51 AM,71.1,54.0,55,30.16,10.0,NW,8.1,-,N/A,,Scattered Clouds,310,2013-06-15 15:51:00
12:51 PM,71.1,52.0,51,30.16,10.0,West,6.9,-,N/A,,Partly Cloudy,260,2013-06-15 16:51:00
1:51 PM,73.0,52.0,48,30.14,10.0,WSW,5.8,-,N/A,,Scattered Clouds,240,2013-06-15 17:51:00
2:51 PM,73.0,51.1,46,30.12,10.0,Variable,3.5,-,N/A,,Partly Cloudy,0,2013-06-15 18:51:00
3:51 PM,75.0,52.0,44,30.11,10.0,Variable,3.5,-,N/A,,Clear,0,2013-06-15 19:51:00
4:51 PM,75.0,52.0,44,30.09,10.0,WNW,5.8,-,N/A,,Clear,290,2013-06-15 20:51:00
5:51 PM,75.0,51.1,43,30.08,10.0,WSW,4.6,-,N/A,,Clear,240,2013-06-15 21:51:00
6:51 PM,73.9,53.1,48,30.09,10.0,Variable,4.6,-,N/A,,Clear,0,2013-06-15 22:51:00
7:51 PM,70.0,53.1,55,30.11,10.0,NW,4.6,-,N/A,,Partly Cloudy,310,2013-06-15 23:51:00
8:51 PM,63.0,55.0,75,30.11,10.0,Calm,Calm,-,N/A,,Clear,0,2013-06-16 00:51:00
9:51 PM,59.0,55.0,87,30.11,10.0,Calm,Calm,-,N/A,,Clear,0,2013-06-16 01:51:00
10:51 PM,57.9,54.0,87,30.12,10.0,Calm,Calm,-,N/A,,Clear,0,2013-06-16 02:51:00
11:51 PM,57.0,54.0,89,30.12,10.0,Calm,Calm,-,N/A,,Clear,0,2013-06-16 03:51:00